Location: Unspecified
(0.0000°N, 0.0000°E)
Time: 21:17:05
(UTC+02:00)

SWIFT - Visible Passes

Search period start: 04 May 2016 00:00
Search period end: 14 May 2016 00:00
Orbit: 549 x 565 km, 20.6° (Epoch: 03 May)

Date Brightness Start Highest point End Pass type
(mag) Time Alt. Az. Time Alt. Az. Time Alt. Az.
04 May 3.8 05:55:20 35° ENE 05:55:20 35° ENE 05:58:10 10° E visible
04 May 2.9 07:32:05 10° W 07:36:05 42° SSW 07:40:08 10° SE visible
04 May 5.1 21:14:38 10° NW 21:16:08 12° NNW 21:17:38 10° N visible
05 May 4.2 05:51:35 28° E 05:51:35 28° E 05:53:41 10° ESE visible
05 May 3.4 07:27:46 10° W 07:31:29 30° SSW 07:35:15 10° SE visible
06 May 4.7 05:47:48 19° ESE 05:47:48 19° ESE 05:49:05 10° ESE visible
06 May 3.8 07:23:35 10° WSW 07:26:55 22° SSW 07:30:15 10° SSE visible
07 May 5.1 05:43:58 12° SE 05:43:58 12° SE 05:44:23 10° ESE visible
07 May 4.1 07:19:43 10° WSW 07:22:22 17° SSW 07:25:07 10° SSE visible
08 May 4.4 07:15:55 10° SW 07:17:50 13° SSW 07:19:45 10° S visible
